TimeMST,TemperatureF,Dew PointF,Humidity,Sea Level PressureIn,VisibilityMPH,Wind Direction,Wind SpeedMPH,Gust SpeedMPH,PrecipitationIn,Events,Conditions,WindDirDegrees,DateUTC
12:48 AM,18.0,16.0,92,30.34,-9999.0,Calm,Calm,-,N/A,,Unknown,0,2012-11-15 07:48:00
1:48 AM,17.1,14.0,88,30.35,-9999.0,West,5.8,-,N/A,,Unknown,280,2012-11-15 08:48:00
2:48 AM,14.0,10.9,88,30.36,-9999.0,Calm,Calm,-,N/A,,Unknown,0,2012-11-15 09:48:00
3:48 AM,16.0,14.0,92,30.36,-9999.0,West,3.5,-,N/A,,Unknown,260,2012-11-15 10:48:00
4:48 AM,12.9,9.0,84,30.38,-9999.0,Calm,Calm,-,N/A,,Unknown,0,2012-11-15 11:48:00
5:48 AM,12.0,10.0,92,30.38,-9999.0,Calm,Calm,-,N/A,,Unknown,0,2012-11-15 12:48:00
6:48 AM,12.9,10.0,88,30.39,-9999.0,Calm,Calm,-,N/A,,Unknown,0,2012-11-15 13:48:00
7:48 AM,14.0,10.9,88,30.39,-9999.0,Calm,Calm,-,N/A,,Unknown,0,2012-11-15 14:48:00
8:48 AM,19.9,17.1,89,30.38,-9999.0,Calm,Calm,-,N/A,,Unknown,0,2012-11-15 15:48:00
9:48 AM,25.0,21.0,85,30.37,-9999.0,East,3.5,-,N/A,,Unknown,100,2012-11-15 16:48:00
10:48 AM,34.0,28.0,79,30.35,-9999.0,Calm,Calm,-,N/A,,Unknown,0,2012-11-15 17:48:00
11:48 AM,41.0,30.9,67,30.31,-9999.0,Calm,Calm,-,N/A,,Unknown,0,2012-11-15 18:48:00
12:48 PM,42.1,32.0,67,30.29,-9999.0,SSW,5.8,-,N/A,,Unknown,210,2012-11-15 19:48:00
1:48 PM,43.0,33.1,68,30.27,-9999.0,SSW,5.8,-,N/A,,Unknown,200,2012-11-15 20:48:00
2:48 PM,43.0,34.0,71,30.26,-9999.0,South,3.5,-,N/A,,Unknown,180,2012-11-15 21:48:00
3:48 PM,41.0,33.1,73,30.25,-9999.0,ESE,4.6,-,N/A,,Unknown,110,2012-11-15 22:48:00
4:48 PM,37.0,30.0,76,30.25,-9999.0,Calm,Calm,-,N/A,,Unknown,0,2012-11-15 23:48:00
5:48 PM,35.1,30.0,82,30.24,-9999.0,Calm,Calm,-,N/A,,Unknown,0,2012-11-16 00:48:00
6:48 PM,35.1,28.9,78,30.23,-9999.0,Variable,3.5,-,N/A,,Unknown,0,2012-11-16 01:48:00
7:48 PM,33.1,28.0,82,30.21,-9999.0,Calm,Calm,-,N/A,,Unknown,0,2012-11-16 02:48:00
8:48 PM,32.0,28.0,85,30.19,-9999.0,SSE,3.5,-,N/A,,Unknown,150,2012-11-16 03:48:00
9:48 PM,35.1,28.0,76,30.15,-9999.0,SSW,5.8,-,N/A,,Unknown,200,2012-11-16 04:48:00
10:48 PM,34.0,27.0,75,30.11,-9999.0,Variable,6.9,-,N/A,,Unknown,0,2012-11-16 05:48:00
11:48 PM,34.0,27.0,75,30.09,-9999.0,West,4.6,-,N/A,,Unknown,260,2012-11-16 06:48:00